GFSMA_sfc_30mbdewp_219.txt.gz
Dewpoint
65 65 66 66 65 64 63 62 62 62 61 60 59 58 59 62 63 63 63 64 66 68 69 68 67 67 67 67 67 66 67 66 65 64 65 64 64 62 62 61 60 60 60
63 64 65 65 64 63 62 61 61 60 59 58 57 57 59 62 63 63 63 64 65 68 69 69 68 67 67 67 67 67 66 66 65 65 65 64 63 62 61 60 59 59 59
63 63 64 64 64 63 62 61 60 60 59 58 57 58 59 62 62 63 63 63 65 66 67 68 68 68 67 67 67 67 66 66 65 64 64 64 62 61 60 59 59 58 58
62 62 63 63 64 63 62 60 60 59 58 58 58 59 60 61 61 62 64 63 63 64 65 66 68 68 68 66 66 67 66 66 64 65 65 63 62 60 59 59 57 57 56
61 62 62 62 63 62 61 60 59 59 58 58 59 59 60 61 61 61 61 63 63 63 63 64 65 65 66 67 66 66 66 66 65 65 64 63 61 60 59 58 56 55 55
61 61 62 62 63 62 61 61 59 59 59 58 60 60 60 61 61 61 61 62 64 64 63 63 63 63 64 65 66 65 65 65 65 64 64 63 61 59 58 57 55 54 53
62 61 61 63 63 62 61 61 60 59 59 61 60 59 59 60 60 61 61 61 62 62 63 63 63 63 63 63 64 65 65 65 64 65 64 63 61 59 57 55 54 53 53
62 62 61 63 63 63 62 62 61 60 60 61 59 58 57 58 59 59 60 60 60 60 61 62 62 63 63 63 64 64 64 65 65 65 64 64 61 59 56 54 54 53 52
64 63 62 62 64 63 62 62 62 61 59 61 60 58 56 55 56 56 58 58 58 58 59 59 59 59 59 60 61 61 62 62 62 62 64 63 62 59 56 54 53 52 52
65 65 64 63 64 65 64 63 63 62 61 60 60 59 57 57 55 54 54 55 56 57 57 57 56 56 56 56 57 58 58 59 59 60 61 62 62 58 55 53 53 51 50
66 65 65 64 64 65 65 64 63 62 61 60 60 59 58 56 56 55 55 54 53 54 54 54 53 53 53 53 53 55 56 56 57 58 59 61 60 56 56 54 52 50 51
66 66 66 65 65 65 65 64 64 63 62 61 61 60 59 58 57 56 56 56 56 55 52 52 52 51 51 51 52 53 53 55 55 56 59 58 56 56 54 53 51 52 53
65 66 66 66 66 65 65 65 64 63 63 62 61 61 60 59 58 58 57 56 55 53 51 49 49 49 49 50 50 52 52 53 54 55 57 57 56 55 53 52 51 53 51
65 66 66 66 65 65 65 64 64 64 63 63 62 61 60 60 59 58 58 56 52 52 50 52 48 48 48 49 50 51 51 52 52 53 54 56 55 53 53 54 53 51 50
65 65 65 65 65 64 64 64 64 63 63 63 62 61 60 60 59 58 57 56 55 51 50 49 49 47 47 48 48 49 50 51 51 51 52 54 53 53 53 52 50 48 46
64 64 64 64 64 64 64 63 63 62 62 61 60 60 59 59 58 58 57 56 55 54 51 51 49 47 47 47 48 48 49 49 50 50 50 53 52 52 49 47 46 45 44
63 63 64 64 63 63 62 62 61 61 60 59 59 58 57 57 56 56 56 55 54 53 51 50 48 45 46 46 46 47 47 47 48 48 49 50 49 47 46 46 45 44 43
63 63 63 63 62 62 61 61 59 59 58 57 56 55 55 54 54 54 53 52 52 52 51 49 47 46 45 45 45 45 45 46 46 47 47 47 45 45 44 44 43 42 41
62 62 62 61 61 60 59 58 57 57 56 55 54 53 52 52 51 51 51 51 51 51 51 49 47 44 43 43 42 42 42 43 44 46 45 45 44 44 43 42 40 40 39
61 60 60 59 58 57 56 55 54 53 53 52 51 51 50 50 50 49 49 49 49 49 48 47 45 43 41 41 42 40 40 40 40 42 41 42 42 42 40 40 39 39 39
58 57 56 55 55 54 53 53 52 51 50 49 49 48 48 48 48 47 47 47 47 46 46 45 43 41 40 39 40 39 38 37 35 37 37 38 39 39 39 39 38 38 38
54 54 53 52 52 51 50 50 49 48 47 47 46 46 45 46 45 45 45 45 44 44 44 43 42 41 40 39 39 38 36 35 34 35 35 33 35 34 36 36 37 36 36
52 51 50 50 49 47 46 46 46 45 44 42 40 39 39 41 41 41 41 42 41 41 41 42 41 41 41 40 40 38 36 36 35 34 35 31 32 31 32 34 35 35 34
50 48 47 46 44 42 41 41 41 41 39 38 38 39 38 38 40 40 39 39 39 39 39 39 40 41 41 40 40 40 38 36 33 33 34 30 31 29 31 32 33 33 33
46 44 44 43 42 40 41 40 39 38 37 36 37 38 38 39 39 39 38 37 37 37 38 39 39 39 39 39 39 38 35 33 32 30 33 29 29 28 29 30 32 32 33
42 42 41 40 39 40 40 40 40 39 38 37 37 36 37 36 36 36 36 36 35 35 36 37 37 37 37 37 38 39 37 35 32 28 32 30 28 27 25 30 31 31 31

GFSMA_sfc_30mbdewp_222.txt.gz
Dewpoint
65 65 65 66 65 64 63 62 62 61 61 61 60 59 57 60 62 63 63 64 65 67 69 68 67 67 67 67 67 66 66 66 66 64 65 65 64 63 62 61 60 60 59
63 64 64 65 64 63 62 62 61 61 60 60 59 57 57 60 62 63 63 64 65 67 68 69 68 67 67 67 67 67 67 67 66 64 64 64 64 63 61 60 59 59 59
63 63 63 64 64 63 62 61 61 60 60 59 58 57 57 59 62 62 62 63 64 65 67 68 69 68 68 67 67 67 67 66 66 65 65 64 63 63 61 60 59 59 59
62 62 63 63 64 63 62 61 60 59 59 58 57 57 58 59 61 62 63 63 63 64 65 66 67 68 68 67 67 66 66 66 66 65 65 64 64 63 60 59 59 59 58
62 61 61 62 63 63 62 61 60 59 58 57 57 58 59 60 61 61 62 63 63 63 64 64 65 66 67 67 66 66 66 66 66 65 65 64 64 63 61 59 59 58 57
62 61 61 62 63 62 62 61 60 59 58 57 57 58 59 60 61 61 61 62 63 63 63 63 63 63 63 64 65 66 66 65 66 66 65 65 64 63 61 59 59 58 56
62 61 60 61 62 61 61 61 60 59 58 60 58 58 59 60 60 60 61 61 61 63 63 63 63 63 63 63 63 64 65 66 65 65 65 65 64 63 61 59 59 57 55
62 60 60 61 62 61 61 61 60 59 59 60 57 58 56 57 59 59 60 60 61 61 61 62 63 63 63 63 63 63 63 63 64 64 64 64 65 63 61 60 58 56 54
61 61 60 59 61 61 61 61 61 60 59 60 59 57 56 56 56 56 58 59 59 59 60 60 60 60 59 59 59 60 60 60 60 61 61 62 62 63 62 60 57 55 55
62 62 61 61 61 62 60 62 62 61 60 59 60 60 58 57 55 54 55 56 57 58 58 58 58 57 57 56 56 56 56 56 57 58 59 60 61 62 62 60 57 56 55
64 63 63 62 62 63 62 62 63 62 62 61 60 59 58 56 56 55 54 55 54 55 56 56 55 54 53 53 53 53 54 54 54 56 57 58 60 63 62 58 56 56 54
64 64 64 64 63 63 64 64 64 63 62 62 61 60 59 58 57 56 56 56 56 56 55 55 53 52 52 51 51 52 52 52 53 54 55 57 61 59 57 56 56 54 53
64 65 65 65 64 64 64 65 64 64 63 62 62 61 61 60 59 58 57 56 56 55 54 53 52 51 50 50 50 51 51 51 52 52 53 55 58 57 56 56 54 53 52
64 65 66 66 65 65 65 65 64 64 64 63 62 61 61 60 60 59 58 56 53 54 52 54 50 48 48 49 49 50 50 50 50 50 51 53 55 56 56 55 53 54 53
64 65 65 65 66 65 65 65 64 64 63 63 63 62 62 61 60 59 59 58 56 52 52 51 49 47 48 48 48 48 49 49 49 49 49 50 52 55 54 54 54 53 51
64 64 64 65 65 64 65 64 64 64 63 63 62 62 61 60 59 59 58 58 57 55 52 50 48 47 47 48 48 47 47 48 48 48 48 49 52 54 53 53 52 50 48
63 64 64 64 64 63 63 63 63 62 62 61 60 60 59 59 58 57 57 56 55 54 52 50 48 46 47 48 47 46 47 47 47 47 48 49 51 52 52 50 49 47 46
63 63 64 63 63 63 62 62 61 61 61 59 58 57 56 56 56 55 55 54 53 52 51 50 49 48 47 45 45 45 45 45 46 46 47 48 49 49 48 47 46 45 45
62 62 62 62 62 62 61 61 61 59 59 57 56 55 54 54 53 52 52 51 51 50 51 49 47 45 44 44 43 43 43 43 44 45 44 45 45 46 46 45 44 44 42
61 61 61 61 61 60 59 58 56 55 54 53 53 53 52 51 50 49 49 49 49 49 48 47 45 44 43 42 42 41 41 40 40 41 41 41 43 43 42 42 42 41 41
60 60 59 57 56 56 55 54 53 52 50 49 48 48 48 48 47 47 47 46 46 46 46 45 44 42 41 40 41 40 39 37 36 37 38 38 39 39 40 40 40 40 40
57 56 55 53 52 50 51 51 51 49 48 47 46 45 45 45 44 44 43 43 44 43 43 43 42 41 41 40 40 39 38 37 38 36 36 34 36 36 38 39 39 39 39
53 52 51 51 49 47 48 48 47 47 46 44 41 39 39 39 39 39 40 40 40 40 41 41 40 41 40 40 40 38 37 37 37 36 36 33 33 33 34 37 38 38 37
51 50 48 47 45 43 44 43 41 40 38 37 37 37 37 38 39 39 38 38 39 39 39 39 39 40 41 41 40 40 39 37 34 34 35 33 31 31 32 34 36 36 36
48 47 45 44 42 40 40 39 38 37 36 35 36 36 36 35 37 38 36 35 36 36 38 39 39 39 39 39 39 38 36 35 33 33 34 32 30 29 30 31 33 35 34
46 45 43 42 41 40 39 38 37 36 35 35 35 35 36 36 36 36 35 35 34 34 35 35 37 37 38 37 37 38 37 35 34 31 32 32 29 28 26 30 31 32 32

GFSMA_sfc_30mbdewp_225.txt.gz
Dewpoint
63 63 64 65 64 64 62 62 62 62 62 62 62 62 59 59 62 63 63 64 64 67 69 68 67 67 66 67 66 66 67 66 66 66 65 65 64 64 62 61 60 60 60
62 62 63 63 63 64 62 61 61 61 60 61 62 62 60 58 62 64 63 64 64 65 68 69 68 67 67 67 67 66 66 66 66 66 64 64 64 64 62 61 60 59 59
62 61 61 62 63 63 64 62 62 61 61 61 60 60 59 57 59 63 64 64 63 64 66 68 69 68 68 68 68 67 66 66 66 66 64 64 64 64 62 61 60 60 59
62 61 60 61 62 63 63 62 61 60 59 59 58 58 57 57 57 61 63 64 64 63 64 66 67 68 68 67 67 67 67 66 66 66 65 65 64 64 62 61 60 60 59
63 61 59 60 62 62 62 61 61 60 58 58 58 58 58 57 58 58 62 63 65 65 65 64 65 66 67 67 67 66 66 66 65 65 65 65 65 64 63 61 60 60 60
63 62 60 60 62 60 60 61 60 60 59 58 56 55 58 58 59 61 61 62 64 64 65 65 65 64 64 65 65 66 66 66 66 66 65 65 65 64 63 62 60 60 60
64 63 61 61 61 59 59 61 60 60 59 60 59 59 59 59 60 60 61 62 63 63 65 64 64 65 64 63 63 64 65 65 66 66 66 65 65 65 64 62 61 60 60
63 63 62 60 61 59 60 60 60 60 60 61 58 58 56 59 61 62 63 63 63 64 63 64 65 65 64 64 64 63 63 63 63 63 63 63 63 65 64 63 61 61 59
63 63 62 61 61 61 59 61 61 60 58 61 60 58 57 56 59 61 61 62 62 63 63 63 64 64 64 64 62 61 60 59 59 60 61 61 62 62 63 64 62 61 59
62 63 62 62 61 61 60 60 61 61 61 60 62 62 61 60 58 57 59 60 61 61 62 62 62 61 61 60 59 58 57 56 56 57 59 59 60 61 62 63 63 61 59
62 62 63 62 62 62 62 61 61 62 61 59 61 61 61 60 59 58 57 58 57 58 59 59 59 58 57 57 57 56 54 54 53 54 56 57 58 59 60 62 62 60 58
63 63 62 63 63 62 63 63 63 63 62 62 62 62 61 59 59 58 57 58 57 58 57 57 56 56 56 55 54 53 52 52 52 53 54 54 56 58 61 63 61 58 57
64 64 64 65 64 64 64 64 64 64 64 63 63 62 63 62 62 60 59 58 57 56 55 54 55 55 55 54 53 51 52 51 50 50 51 53 54 58 60 59 58 57 56
65 65 66 66 65 65 65 65 65 65 65 64 64 64 63 63 62 61 60 58 54 54 54 55 52 52 52 52 51 50 51 49 49 49 49 50 52 53 58 57 57 56 55
66 66 66 66 66 66 66 66 65 65 65 64 64 64 63 63 63 62 61 60 58 52 53 54 52 51 52 51 50 51 51 49 48 48 48 49 50 51 55 56 55 54 54
66 66 66 66 66 66 66 66 65 65 64 64 64 63 63 63 62 62 61 60 59 57 54 53 51 50 50 50 49 50 49 48 47 47 47 47 49 50 53 55 54 54 53
66 66 66 66 65 65 65 64 64 64 63 63 62 62 62 61 60 59 59 58 57 56 53 50 50 50 50 50 49 49 49 49 49 46 46 47 49 51 53 54 53 53 50
66 65 65 65 65 64 64 63 63 63 62 62 61 60 60 59 58 57 56 55 54 54 53 51 51 50 50 48 48 48 47 47 47 46 45 45 47 50 51 51 50 49 47
64 64 64 64 64 63 63 63 63 62 61 60 59 58 56 55 54 54 53 52 52 52 51 50 49 48 46 47 47 46 45 45 44 43 44 44 44 45 47 48 46 45 45
63 63 63 63 63 62 62 61 60 58 56 55 54 54 53 53 52 52 51 51 51 50 49 48 48 46 46 45 44 43 43 42 42 42 42 43 43 43 43 43 43 43 42
62 62 61 61 60 59 58 57 55 53 51 50 49 50 50 50 50 50 50 50 49 49 48 47 46 44 43 42 43 43 42 40 40 40 40 40 41 41 41 41 42 41 41
60 60 59 57 56 54 53 53 52 50 49 48 47 47 46 46 44 44 44 45 47 46 45 44 44 43 42 43 43 41 41 39 40 40 39 37 39 38 39 41 40 40 40
57 56 54 53 52 49 49 49 49 48 47 46 44 43 41 41 42 42 41 40 41 42 43 42 40 40 41 42 42 40 39 40 41 39 38 36 35 36 36 39 40 40 40
54 53 51 50 48 45 46 46 45 43 42 41 40 39 39 38 38 38 39 39 39 39 39 41 41 42 42 42 42 41 41 38 36 36 38 35 33 33 33 37 39 39 38
51 49 48 47 45 42 41 41 40 38 36 36 37 38 37 37 38 38 36 34 36 36 38 37 38 39 39 40 41 40 37 36 35 35 35 35 32 31 31 32 37 37 37
48 46 45 44 43 40 38 37 37 37 35 35 36 36 36 35 36 36 35 34 33 34 35 35 36 37 37 40 38 39 38 35 35 33 35 35 31 32 30 31 32 35 35

GFSMA_sfc_30mbdewp_228.txt.gz
Dewpoint
58 58 58 57 58 58 58 58 57 59 59 60 59 60 59 57 58 58 59 63 64 66 69 68 68 67 66 67 66 66 66 66 66 65 66 65 65 65 64 62 61 60 60
56 57 58 58 58 57 58 58 57 58 59 58 59 60 60 57 56 60 59 62 63 64 67 70 69 67 66 67 67 66 66 67 66 66 66 65 65 64 64 62 61 61 60
57 56 56 57 57 57 58 58 58 58 57 58 58 58 60 59 56 58 62 61 62 63 65 67 69 68 68 68 68 67 66 66 66 66 66 64 64 64 64 62 61 61 60
58 59 55 56 56 57 58 58 57 57 56 56 56 56 56 56 55 54 57 60 60 60 63 64 66 68 69 68 68 68 67 67 66 67 66 65 64 64 64 63 61 61 60
60 58 55 54 56 57 57 57 56 56 53 54 54 55 55 54 54 53 53 56 61 62 60 62 64 65 67 68 68 67 67 67 67 66 66 66 65 65 64 63 62 61 60
62 60 56 55 57 56 55 56 56 56 56 53 52 50 53 53 53 54 53 54 56 60 63 62 63 64 65 66 66 67 67 66 66 66 66 66 65 65 65 64 63 62 61
63 62 59 57 58 56 54 56 57 57 55 56 54 54 54 56 59 58 54 55 55 58 62 63 63 62 62 64 64 65 65 66 66 66 66 66 65 65 65 64 63 62 61
63 63 62 58 59 57 56 57 57 55 55 55 55 53 51 54 59 61 59 57 58 59 61 63 64 64 63 63 64 64 65 65 65 65 64 64 64 63 64 65 64 63 62
63 64 62 61 61 60 57 59 59 58 53 55 58 53 52 54 54 59 62 61 61 62 62 63 64 65 65 66 64 64 62 61 61 61 61 61 62 62 62 63 64 64 62
63 63 64 62 63 61 60 59 60 60 59 54 57 60 59 55 55 54 61 62 63 63 64 65 64 65 64 63 62 61 59 57 56 57 58 59 60 60 61 61 62 64 63
63 63 63 63 63 63 62 62 61 61 59 58 56 57 59 59 59 58 56 60 60 61 62 63 62 62 61 60 60 59 56 54 53 53 55 56 57 58 59 59 61 62 63
63 64 63 64 64 63 62 62 63 62 61 60 60 59 57 58 59 60 59 59 60 60 59 60 60 59 58 57 57 55 54 52 52 52 53 54 55 56 57 59 62 62 63
62 63 64 64 64 63 62 62 62 62 63 63 63 62 61 61 61 61 61 59 59 60 57 58 57 56 56 56 56 53 52 51 50 49 50 51 52 53 55 59 61 62 61
63 64 65 64 64 64 64 63 64 65 65 65 65 65 64 64 64 64 62 60 57 57 55 55 56 56 54 55 55 51 53 49 49 48 48 49 50 51 52 55 59 60 59
64 65 66 66 66 66 66 66 66 66 66 66 66 65 65 65 65 64 64 62 59 56 53 55 54 55 54 52 53 53 53 48 48 47 47 47 48 49 50 52 57 57 58
65 66 67 67 67 67 67 66 66 66 66 66 66 65 65 65 64 64 63 63 62 60 55 54 52 51 53 53 50 52 51 48 48 47 46 46 47 49 50 51 55 56 55
66 66 67 67 67 67 67 66 66 66 66 65 65 64 64 64 63 63 62 62 60 59 56 51 52 53 52 51 51 52 50 50 50 46 45 45 47 48 49 52 54 54 54
66 66 66 66 66 66 66 66 66 65 65 64 64 63 63 63 62 61 60 59 58 58 55 50 52 50 51 52 52 51 49 48 48 45 44 44 45 46 48 50 53 52 51
66 66 66 66 66 66 65 66 65 65 64 64 64 63 62 60 58 57 56 55 54 53 53 51 48 50 50 51 50 49 48 47 45 43 44 44 44 44 46 47 48 48 47
66 66 66 66 66 65 65 65 64 63 62 61 60 59 58 57 55 54 54 53 52 51 52 51 49 49 49 48 48 47 46 46 46 44 43 43 43 43 44 44 43 44 44
64 64 65 65 65 65 64 63 61 59 56 54 53 52 53 53 52 52 52 52 52 51 52 49 48 47 46 46 45 45 44 44 43 44 44 43 44 44 44 43 43 43 42
64 64 63 62 61 59 58 58 57 54 52 51 50 48 47 47 46 47 48 48 51 50 49 47 45 43 44 43 43 44 44 42 41 44 43 42 42 42 42 43 42 41 41
61 61 60 59 57 55 53 54 53 52 51 49 47 45 44 45 44 44 42 43 42 43 45 43 41 42 42 42 42 43 43 41 40 43 43 40 39 39 39 40 40 40 40
58 58 56 55 53 49 49 49 49 48 46 45 44 43 43 43 42 42 41 40 40 41 43 41 42 42 42 42 41 41 41 41 41 42 42 38 37 36 36 38 40 40 40
56 55 54 52 49 45 45 45 46 44 42 42 42 41 40 38 39 39 38 37 37 37 37 38 39 40 40 40 42 41 39 38 37 37 38 38 34 33 33 35 38 39 39
53 51 49 48 46 43 42 44 44 41 39 37 38 38 38 38 37 37 36 35 33 35 36 36 37 37 38 40 39 41 39 38 37 35 37 37 33 34 32 33 34 37 38

GFSMA_sfc_30mbdewp_231.txt.gz
Dewpoint
61 59 56 56 57 56 56 56 57 58 58 59 59 60 59 58 56 55 56 63 63 65 68 68 69 68 67 67 67 66 66 66 66 65 66 66 65 65 65 64 62 62 61
59 58 57 56 55 56 56 56 56 55 57 57 58 59 58 57 56 55 55 62 63 63 65 69 69 69 68 67 68 67 66 66 67 66 66 66 65 65 65 64 62 61 61
59 58 56 57 56 57 59 58 58 57 56 57 57 58 59 59 58 56 56 58 62 62 63 65 69 70 68 67 67 67 67 66 66 67 66 66 65 65 64 64 63 62 61
58 59 55 56 56 56 56 57 57 56 56 56 56 56 56 57 58 58 56 56 58 59 63 63 65 68 69 69 68 68 68 67 66 66 66 66 66 65 64 64 64 62 62
61 59 56 55 58 56 56 57 57 57 54 55 54 54 55 54 54 54 54 55 57 59 59 62 63 64 66 69 69 69 68 68 68 67 66 66 66 65 64 64 64 63 62
63 61 57 57 57 55 55 56 56 56 55 53 51 50 54 54 54 54 53 54 54 57 61 61 63 63 63 66 67 68 68 68 67 67 67 67 66 66 65 65 64 64 63
64 63 61 59 59 56 56 57 58 57 55 56 53 52 52 54 55 55 55 55 54 55 57 61 62 62 63 63 64 66 67 67 67 66 66 66 66 65 65 65 65 64 64
64 64 63 59 59 57 58 58 58 57 57 56 54 53 51 53 55 57 59 61 60 57 56 59 61 62 64 65 65 65 65 66 66 66 65 64 64 64 63 63 64 64 64
64 65 64 63 60 60 59 60 60 59 56 57 57 54 51 51 52 56 62 63 62 59 60 60 62 64 65 66 66 64 63 62 62 61 61 61 61 61 62 62 62 63 64
64 65 65 65 64 62 61 61 61 61 60 57 58 58 58 57 53 52 59 63 64 63 63 65 66 66 66 66 65 63 61 59 58 57 58 58 58 59 59 60 60 61 62
65 65 66 66 65 65 63 62 61 62 62 60 58 57 60 60 61 58 56 57 64 65 65 66 66 65 64 63 62 60 57 55 54 55 55 55 56 57 58 58 58 59 60
65 65 65 66 66 65 65 64 64 64 63 62 61 60 58 59 59 59 58 58 59 61 62 63 64 64 62 61 59 58 56 54 53 54 53 53 54 54 55 56 57 59 61
64 65 66 66 66 66 66 65 65 64 64 63 63 62 61 61 61 60 61 60 60 61 62 61 61 61 59 59 58 56 54 52 51 50 50 50 51 52 53 54 55 59 60
64 65 67 67 67 66 66 66 65 65 65 65 64 64 63 64 63 63 62 61 60 60 59 60 59 59 58 58 57 54 53 50 49 49 48 48 49 50 50 51 53 56 60
63 65 66 66 67 66 66 66 65 65 64 65 66 66 66 66 66 65 65 64 62 58 55 57 56 57 57 56 53 53 54 49 48 47 47 46 47 48 49 50 51 53 58
64 64 66 66 66 66 66 66 65 65 65 66 67 67 66 66 66 66 65 64 63 61 58 56 55 54 55 54 52 54 53 48 47 46 45 45 46 47 48 49 50 51 56
64 64 66 67 66 66 67 66 66 66 66 66 67 66 66 66 65 65 64 64 63 62 59 52 53 53 53 51 51 54 50 52 48 45 45 44 45 45 47 49 51 52 55
64 65 65 66 66 67 67 67 66 66 66 66 66 65 65 65 64 64 63 62 61 61 58 52 52 50 51 51 52 52 51 50 49 44 44 44 44 44 45 47 50 51 53
64 65 65 66 66 67 67 67 66 66 66 66 66 65 64 64 62 62 61 60 58 56 55 52 48 50 51 52 52 53 50 49 46 44 44 45 44 44 44 46 48 49 49
65 65 66 66 66 67 66 66 66 66 66 65 65 64 64 63 61 59 57 55 54 53 52 51 49 50 50 51 51 49 48 47 46 44 43 43 44 43 43 44 44 45 46
65 66 66 66 66 66 65 65 65 65 63 60 58 58 58 58 58 57 55 53 53 52 52 51 50 49 48 48 48 48 46 45 44 45 45 44 45 44 44 44 44 44 43
67 67 66 66 65 65 63 64 64 62 58 56 54 50 49 50 50 50 50 51 52 52 51 50 49 48 48 47 45 46 45 42 42 45 44 43 44 43 43 44 43 42 42
66 66 65 65 63 60 61 60 59 59 56 54 50 48 47 47 48 47 45 44 44 44 47 49 48 45 45 45 46 44 44 42 40 45 44 41 42 41 42 41 41 41 41
63 63 62 61 60 55 55 55 55 54 52 50 49 48 48 47 47 47 46 44 42 41 42 44 44 45 44 44 43 43 42 42 43 44 43 39 39 38 38 40 40 40 40
60 60 60 60 57 49 50 51 52 49 46 45 45 46 45 44 43 42 41 38 37 37 37 39 39 40 40 41 42 42 41 40 38 38 41 40 37 35 35 36 39 40 40
59 56 56 56 52 47 47 48 49 45 43 42 41 41 41 40 39 39 37 36 33 35 35 36 37 38 39 40 40 42 40 38 38 36 39 38 35 35 33 35 36 38 39